Regional Weather Roundup
Issued by NWS

Home | Current Version | Previous Version | Graphics & Text | Print | Product List | Glossary On
Versions: 1 2 3 4 5 6 7 8 9 10 11 12 13 14 15 16 17 18 19 20 21 22 23 24 25 26 27 28 29 30 31 32 33 34 35 36 37 38 39 40 41 42 43 44 45 46 47 48 49 50
000
ASUS43 KLSX 010910
RWRMO

WEATHER SUMMARY FOR MISSOURI
NATIONAL WEATHER SERVICE SPRINGFIELD MO
400 AM CDT SUN MAY 01 2016

NOTE: "FAIR" INDICATES FEW OR NO CLOUDS BELOW 12,000 FEET WITH NO
       SIGNIFICANT WEATHER AND/OR OBSTRUCTIONS TO VISIBILITY.
       CURRENT SKY AND/OR WEATHER CONDITIONS ARE NOT AVAILABLE FOR
       CHILLICOTHE AND FARMINGTON.

MOZ001>031-035>038-043-044-053-054-011000-
...NORTHERN AND WESTERN MISSOURI...

CITY           SKY/WX    TMP DP  RH WIND       PRES   REMARKS
KANSAS CTY INT MOCLDY    50  46  86 W3        29.88S
KANSAS C DTWN  MOCLDY    54  47  77 SW6       29.88S
LEE`S SUMMIT   CLOUDY    53  46  77 W5        29.89R
ST JOSEPH      CLOUDY    53  50  89 W6        29.89R
CHILLICOTHE      N/A     56  54  93 E3        29.89R
KIRKSVILLE     FOG       49  48  97 NE9       29.90R VSB 3/4

$$
MOZ066>068-077>081-088>096-101>105-011000-
...SOUTHWEST MISSOURI...

CITY           SKY/WX    TMP DP  RH WIND       PRES   REMARKS
SPRINGFIELD    CLEAR     52  47  83 W5        29.91R
JOPLIN         PTCLDY    50  46  86 SW3       29.94R

$$
MOZ032>034-039>042-045>050-055>058-069>072-011000-
...CENTRAL MISSOURI...

CITY           SKY/WX    TMP DP  RH WIND       PRES   REMARKS
COLUMBIA       MOCLDY    55  52  89 W6        29.86S
JEFFERSON CITY MOCLDY    56  54  93 NW3       29.86R
ROLLA          CLEAR     55  52  89 W7        29.86R
SEDALIA        CLEAR     54  48  80 W5        29.89R
WHITEMAN AFB   PTCLDY    51  51  99 W7        29.87R
WARRENSBURG    PTCLDY    50  46  87 CALM      29.89R
OSAGE BEACH    PTCLDY    54  45  71 SW3       29.89R

$$
MOZ051-052-059>065-011000-
...EAST CENTRAL MISSOURI...

CITY           SKY/WX    TMP DP  RH WIND       PRES   REMARKS
ST LOUIS INTL  MOCLDY    60  56  86 S6        29.85R
SPIRIT OF STL  CLEAR     55  55 100 CALM      29.84R
ST CHARLES     PTCLDY    54  54 100 CALM      29.85R FOG

$$
MOZ072>076-082>087-097>100-106>115-011000-
...SOUTH CENTRAL AND SOUTHEAST MISSOURI...

CITY           SKY/WX    TMP DP  RH WIND       PRES   REMARKS
CAPE GIRARDEAU CLOUDY    63  62  97 E6        29.88S
FARMINGTON     MOCLDY    58  57  97 S3        29.87R
POPLAR BLUFF   LGT RAIN  63  62  97 VRB3      29.85F
WEST PLAINS    FOG       55  53  93 CALM      29.90R VSB 1/4

$$




USA.gov is the U.S. government's official web portal to all federal, state and local government web resources and services.